Tracking 28908 objects as of 21-May-2024
HD Live streaming from Space Station
objects crossing your sky now

STARLINK-2370

Track STARLINK-2370 now!
10-day predictions
STARLINK-2370 is classified as:


NORAD ID: 47910
Int'l Code: 2021-021BC
Perigee: 553.5 km
Apogee: 555.2 km
Inclination: 53.1 °
Period: 95.6 minutes
Semi major axis: 6925 km
RCS: Unknown
Launch date: March 14, 2021
Source: United States (US)
Launch site: AIR FORCE EASTERN TEST RANGE (AFETR)
Your satellite tracking list
Your tracking list is empty




NASA's NSSDC Master Catalog

Two Line Element Set (TLE):
1 47910U 21021BC  24141.87679313  .00008827  00000-0  61075-3 0  9990
2 47910  53.0544 344.8178 0001198  81.2284 278.8841 15.06398511176576
Source of the keplerian elements: AFSPC